TimePST,TemperatureF,Dew PointF,Humidity,Sea Level PressureIn,VisibilityMPH,Wind Direction,Wind SpeedMPH,Gust SpeedMPH,PrecipitationIn,Events,Conditions,WindDirDegrees,DateUTC
12:53 AM,36.0,30.9,82,29.64,10.0,SSW,18.4,-,N/A,,Partly Cloudy,210,2011-11-14 08:53:00
1:53 AM,36.0,32.0,86,29.62,10.0,SSW,21.9,-,N/A,,Clear,210,2011-11-14 09:53:00
2:53 AM,35.1,32.0,89,29.63,10.0,SSW,21.9,28.8,N/A,,Clear,210,2011-11-14 10:53:00
3:53 AM,35.1,32.0,89,29.63,10.0,SSW,20.7,-,N/A,,Clear,210,2011-11-14 11:53:00
4:53 AM,35.1,32.0,89,29.63,10.0,SW,24.2,32.2,N/A,,Partly Cloudy,220,2011-11-14 12:53:00
5:53 AM,35.1,30.9,85,29.63,10.0,SW,24.2,-,N/A,,Partly Cloudy,220,2011-11-14 13:53:00
6:53 AM,34.0,30.0,85,29.65,10.0,SSW,18.4,-,N/A,,Scattered Clouds,210,2011-11-14 14:53:00
7:53 AM,35.1,30.0,82,29.67,10.0,SW,17.3,-,N/A,,Scattered Clouds,220,2011-11-14 15:53:00
8:53 AM,37.0,30.0,76,29.68,10.0,SW,16.1,-,N/A,,Scattered Clouds,220,2011-11-14 16:53:00
9:50 AM,42.8,26.6,53,29.88,10.0,SW,15.0,20.7,N/A,,Scattered Clouds,220,2011-11-14 17:50:00
9:53 AM,41.0,28.9,62,29.69,10.0,WSW,25.3,31.1,N/A,,Scattered Clouds,240,2011-11-14 17:53:00
10:53 AM,43.0,26.1,51,29.70,10.0,West,28.8,36.8,N/A,,Scattered Clouds,260,2011-11-14 18:53:00
11:53 AM,46.0,23.0,40,29.70,10.0,West,23.0,34.5,N/A,,Scattered Clouds,280,2011-11-14 19:53:00
12:53 PM,44.1,25.0,47,29.72,10.0,North,21.9,41.4,N/A,,Mostly Cloudy,350,2011-11-14 20:53:00
1:03 PM,37.4,28.4,70,29.71,10.0,North,16.1,25.3,0.00,Snow,Light Snow,350,2011-11-14 21:03:00
1:53 PM,37.9,26.1,62,29.78,9.0,NNW,12.7,20.7,0.00,Snow,Light Snow,340,2011-11-14 21:53:00
2:53 PM,37.9,19.9,48,29.81,10.0,North,11.5,-,0.00,,Mostly Cloudy,350,2011-11-14 22:53:00
3:53 PM,37.0,16.0,42,29.85,10.0,North,10.4,-,0.00,Snow,Light Snow,360,2011-11-14 23:53:00
4:53 PM,35.6,15.8,44,29.83,10.0,North,5.8,-,N/A,,Overcast,350,2011-11-15 00:53:00
5:53 PM,33.1,15.1,48,29.90,10.0,North,5.8,-,N/A,,Mostly Cloudy,350,2011-11-15 01:53:00
6:53 PM,30.2,15.8,55,29.87,10.0,North,3.5,-,N/A,,Mostly Cloudy,350,2011-11-15 02:53:00
7:53 PM,30.9,17.1,57,29.95,10.0,North,3.5,-,N/A,,Mostly Cloudy,360,2011-11-15 03:53:00
8:53 PM,30.0,17.1,59,29.97,10.0,Calm,Calm,-,N/A,,Mostly Cloudy,0,2011-11-15 04:53:00
9:53 PM,25.0,18.0,75,29.99,10.0,WSW,5.8,-,N/A,,Scattered Clouds,250,2011-11-15 05:53:00
10:53 PM,25.0,16.0,69,30.01,10.0,SW,6.9,-,N/A,,Partly Cloudy,230,2011-11-15 06:53:00
11:53 PM,21.9,16.0,78,30.02,10.0,WSW,4.6,-,N/A,,Scattered Clouds,240,2011-11-15 07:53:00